Regional Weather Roundup
Issued by NWS Goodland, KS

Home | Current Version | Previous Version | Graphics & Text | Print | Product List | Glossary Off
Versions: 1 2 3 4 5 6 7 8 9 10 11 12 13 14 15 16 17 18 19 20 21 22 23 24 25 26 27 28 29 30 31 32 33 34 35 36 37 38 39 40 41 42 43 44 45 46 47 48 49 50

000
ASUS43 KGLD 191259
RWRGLD

GOODLAND FORECAST AREA HOURLY WEATHER ROUNDUP
NATIONAL WEATHER SERVICE GOODLAND KS
600 AM MST FRI DEC 19 2014

...OFFICIAL OBSERVATIONS...

CITY           SKY/WX    TMP DP  RH WIND       PRES   REMARKS
GOODLAND KS    CLEAR     25  21  85 W8        30.09R
HILL CITY KS   CLOUDY    32  30  92 W6        30.14S FOG
IMPERIAL NEB   CLEAR     18  13  80 W5        30.09R
MCCOOK NEB     CLEAR     14  12  92 SW6       30.12S
AKRON CO       CLOUDY    22  20  92 W16       30.07R FOG     WCI   8
BURLINGTON CO  CLEAR     22  18  85 W9        30.09R
LIMON CO       CLEAR     13  11  92 N7        30.08R
$$

...UNOFFICIAL OBSERVATIONS...

CITY           SKY/WX    TMP DP  RH WIND       PRES   REMARKS
COLBY KS       CLEAR     21  21 100 CALM      30.11R
GOVE KS          N/A     25  32 100 MISG        N/A
NORTON KS      FOG       30  28  93 SW7       30.11S VSB 1/4
SHARON SPRINGS   N/A     29  27  91 CALM        N/A
KIT CARSON CO    N/A     23  20  89 MISG        N/A
$$


USA.gov is the U.S. government's official web portal to all federal, state and local government web resources and services.